Location: Bodest
(46.3000°N, 22.5667°E)
Time: 09:52:21
(UTC+00:00)

Cosmos 1758 - Pass Details

Date: 16 October 2021
Orbit: 539 x 560 km, 82.5° (Epoch: 07 December)

Event Time Altitude Azimuth Distance (km) Brightness Sun altitude
Rises 16:24:39 0° 184° (S) 2,705 7.0 -8.2°
Reaches altitude 10° 16:26:48 10° 184° (S) 1,813 6.1 -8.6°
Maximum altitude 16:30:47 80° 98° (E) 560 3.2 -9.3°
Drops below altitude 10° 16:34:47 10° 11° (NNE) 1,818 5.8 -10.0°
Sets 16:36:57 0° 11° (N) 2,714 6.7 -10.3°
